Location: Chandolas
(44.4033°N, 4.2533°E)
Time: 01:54:27
(UTC+00:00)

STARLINK-45 - Pass Details

Date: 15 November 2019
Orbit: 529 x 531 km, 53.0° (Epoch: 15 December)

Event Time Altitude Azimuth Distance (km) Brightness Sun altitude
Exits shadow 04:24:49 - 185° (S) 2,472 6.9 -23.8°
Reaches altitude 10° 04:27:03 10° 166° (SSE) 1,813 6.4 -23.4°
Drops below altitude 10° 04:32:13 10° 89° (E) 1,858 7.4 -22.5°
Enters shadow 05:34:57 -61° 234° (SW) 11,806 10.3 -11.5°
Maximum altitude 06:09:21 89° 331° (NNW) 572 3.7 -5.6°
